Date String (YYYY-MM-DD hh:mm:ss) UTC,Instrument flags,Ambient pressure (hPa),Sample flow (lpm),Bypass flow (lpm),Sample temperature (°C),Ambient temperature (°C),ASC tube jacket temperature (°C),LED temperature (°C),Box temperature (°C),Sample RH (%),Span deviation,Mass concentration (μg/m³),Mass concentration (μg/m³),Mass concentration (μg/m³)
DateTimeUTC,F1_M11,P_M11,Q1_M11,Q2_M11,T1_M11,T2_M11,T3_M11,T4_M11,T5_M11,U1_M11,ZSPAN_M11,X0_M11,X2_M11,X1_M11
2022-02-06 21:00:00,,0833.1,4.99,0.00,22.7,22.2,00.0,31.7,24.5,09.1,0000.0,0004.34,0002.26,0001.73
2022-02-06 21:01:00,,0833.2,5.01,0.00,22.7,22.2,00.0,31.7,24.5,09.2,0000.0,0004.39,0002.29,0001.74
2022-02-06 21:02:00,,0833.1,4.98,0.00,22.8,22.2,00.0,31.7,24.6,09.1,0000.0,0004.52,0002.28,0001.75
2022-02-06 21:03:00,,0833.1,5.01,0.00,22.8,22.2,00.0,31.7,24.6,09.1,0000.0,0004.30,0002.27,0001.75
2022-02-06 21:04:00,,0833.1,4.99,0.00,22.8,22.2,00.0,31.7,24.5,09.1,0000.0,0004.17,0002.28,0001.74
2022-02-06 21:05:00,,0833.2,5.00,0.00,22.8,22.2,00.0,31.7,24.5,08.8,0000.0,0004.66,0002.32,0001.73
2022-02-06 21:06:00,,0833.2,5.01,0.00,22.8,22.2,00.0,31.8,24.5,09.1,0000.0,0005.70,0002.33,0001.73
2022-02-06 21:07:00,,0833.2,4.99,0.00,22.8,22.2,00.0,31.8,24.6,09.3,0000.0,0006.26,0002.31,0001.73
2022-02-06 21:08:00,,0833.1,5.01,0.00,22.8,22.2,00.0,31.8,24.6,09.3,0000.0,0006.28,0002.29,0001.73
2022-02-06 21:09:00,,0833.1,5.00,0.00,22.8,22.3,00.0,31.8,24.5,09.4,0000.0,0006.02,0002.28,0001.73
2022-02-06 21:10:00,,0833.2,4.99,0.00,22.8,22.2,00.0,31.8,24.5,08.9,0000.0,0005.77,0002.25,0001.75
2022-02-06 21:11:00,,0833.1,5.02,0.00,22.8,22.2,00.0,31.8,24.5,09.0,0000.0,0005.63,0002.20,0001.74
2022-02-06 21:12:00,,0833.1,5.00,0.00,22.8,22.2,00.0,31.8,24.5,08.9,0000.0,0005.45,0002.15,0001.72
2022-02-06 21:13:00,,0833.1,4.99,0.00,22.8,22.2,00.0,31.8,24.5,08.9,0000.0,0005.26,0002.12,0001.72
2022-02-06 21:14:00,,0833.1,5.01,0.00,22.8,22.2,00.0,31.8,24.5,08.9,0000.0,0005.22,0002.14,0001.73
2022-02-06 21:15:00,,0833.1,4.99,0.00,22.8,22.2,00.0,31.8,24.5,08.9,0000.0,0005.12,0002.09,0001.74
2022-02-06 21:16:00,,0833.2,5.00,0.00,22.8,22.2,00.0,31.8,24.6,09.1,0000.0,0004.68,0002.08,0001.74
2022-02-06 21:17:00,,0833.1,4.99,0.00,22.8,22.2,00.0,31.8,24.6,09.1,0000.0,0003.84,0002.09,0001.75
2022-02-06 21:18:00,,0833.1,4.99,0.00,22.8,22.2,00.0,31.8,24.6,09.2,0000.0,0003.29,0002.09,0001.76
2022-02-06 21:19:00,,0833.1,5.01,0.00,22.8,22.1,00.0,31.8,24.6,09.2,0000.0,0003.46,0002.09,0001.76
2022-02-06 21:20:00,,0833.1,5.01,0.00,22.8,22.1,00.0,31.8,24.6,09.3,0000.0,0003.37,0002.07,0001.76
2022-02-06 21:21:00,,0833.1,4.99,0.00,22.8,22.1,00.0,31.8,24.5,09.1,0000.0,0003.35,0002.05,0001.75
2022-02-06 21:22:00,,0833.1,5.00,0.00,22.7,22.1,00.0,31.7,24.4,09.2,0000.0,0003.39,0002.08,0001.75
2022-02-06 21:23:00,,0833.0,5.01,0.00,22.7,22.1,00.0,31.7,24.4,09.1,0000.0,0003.46,0002.11,0001.77
2022-02-06 21:24:00,,0833.0,4.99,0.00,22.7,22.1,00.0,31.7,24.4,09.4,0000.0,0003.53,0002.13,0001.78
2022-02-06 21:25:00,,0833.0,5.00,0.00,22.7,22.1,00.0,31.7,24.4,09.3,0000.0,0003.53,0002.11,0001.76
2022-02-06 21:26:00,,0833.1,4.99,0.00,22.7,22.1,00.0,31.7,24.4,09.1,0000.0,0003.51,0002.11,0001.77
2022-02-06 21:27:00,,0833.0,5.01,0.00,22.7,22.0,00.0,31.7,24.3,09.0,0000.0,0003.54,0002.10,0001.78
2022-02-06 21:28:00,,0833.1,4.99,0.00,22.6,22.0,00.0,31.7,24.3,09.3,0000.0,0003.36,0002.08,0001.78
2022-02-06 21:29:00,,0833.1,4.99,0.00,22.6,21.9,00.0,31.7,24.3,09.2,0000.0,0003.80,0002.09,0001.77
2022-02-06 21:30:00,,0833.0,5.01,0.00,22.6,21.9,00.0,31.7,24.2,09.3,0000.0,0003.78,0002.09,0001.76
2022-02-06 21:31:00,,0833.0,4.99,0.00,22.6,21.9,00.0,31.7,24.2,09.0,0000.0,0003.74,0002.07,0001.76
2022-02-06 21:32:00,,0833.0,5.01,0.00,22.5,21.8,00.0,31.7,24.2,09.2,0000.0,0003.74,0002.07,0001.74
2022-02-06 21:33:00,,0833.0,5.00,0.00,22.5,21.9,00.0,31.6,24.2,09.2,0000.0,0003.82,0002.04,0001.73
2022-02-06 21:34:00,,0833.0,5.01,0.00,22.5,21.9,00.0,31.6,24.2,09.2,0000.0,0003.93,0002.03,0001.72
2022-02-06 21:35:00,,0833.1,5.00,0.00,22.6,21.9,00.0,31.6,24.3,09.1,0000.0,0004.13,0002.02,0001.71
2022-02-06 21:36:00,,0833.0,4.99,0.00,22.5,21.9,00.0,31.6,24.3,08.9,0000.0,0004.23,0002.05,0001.70
2022-02-06 21:37:00,,0833.0,5.01,0.00,22.5,21.9,00.0,31.6,24.3,08.8,0000.0,0004.27,0002.05,0001.68
2022-02-06 21:38:00,,0833.0,4.99,0.00,22.5,21.9,00.0,31.6,24.3,09.0,0000.0,0004.16,0002.01,0001.66
2022-02-06 21:39:00,,0832.9,5.00,0.00,22.5,21.9,00.0,31.6,24.3,09.1,0000.0,0004.17,0002.01,0001.65
2022-02-06 21:40:00,,0832.9,5.01,0.00,22.6,21.9,00.0,31.6,24.3,09.1,0000.0,0003.81,0001.99,0001.65
2022-02-06 21:41:00,,0832.9,4.99,0.00,22.6,22.0,00.0,31.6,24.3,09.0,0000.0,0003.62,0002.00,0001.65
2022-02-06 21:42:00,,0832.9,5.01,0.00,22.6,22.0,00.0,31.6,24.3,09.1,0000.0,0003.53,0001.98,0001.65
2022-02-06 21:43:00,,0832.8,5.01,0.00,22.6,22.0,00.0,31.6,24.3,09.2,0000.0,0003.65,0002.01,0001.65
2022-02-06 21:44:00,,0832.9,5.00,0.00,22.6,22.0,00.0,31.6,24.3,09.3,0000.0,0003.78,0002.05,0001.66
2022-02-06 21:45:00,,0832.8,5.00,0.00,22.6,22.0,00.0,31.6,24.3,09.2,0000.0,0003.57,0002.04,0001.67
2022-02-06 21:46:00,,0832.8,5.00,0.00,22.6,22.0,00.0,31.6,24.3,09.3,0000.0,0003.33,0002.03,0001.67
2022-02-06 21:47:00,,0832.9,5.01,0.00,22.6,22.0,00.0,31.6,24.3,09.2,0000.0,0003.21,0002.01,0001.66
2022-02-06 21:48:00,,0832.9,4.98,0.00,22.6,22.1,00.0,31.6,24.3,09.6,0000.0,0003.14,0001.97,0001.65
2022-02-06 21:49:00,,0832.9,5.02,0.00,22.6,22.1,00.0,31.6,24.3,09.5,0000.0,0003.16,0001.97,0001.63
2022-02-06 21:50:00,,0833.0,5.00,0.00,22.6,22.1,00.0,31.6,24.4,09.6,0000.0,0003.13,0001.95,0001.59
2022-02-06 21:51:00,,0833.0,5.00,0.00,22.6,22.1,00.0,31.6,24.4,09.1,0000.0,0003.25,0001.92,0001.54
2022-02-06 21:52:00,,0833.0,5.01,0.00,22.6,22.1,00.0,31.6,24.3,09.3,0000.0,0003.54,0001.85,0001.48
2022-02-06 21:53:00,,0833.0,5.00,0.00,22.6,22.1,00.0,31.6,24.3,09.2,0000.0,0003.74,0001.79,0001.42
2022-02-06 21:54:00,,0833.0,5.00,0.00,22.6,22.1,00.0,31.6,24.4,09.5,0000.0,0003.61,0001.71,0001.36
2022-02-06 21:55:00,,0833.0,4.99,0.00,22.6,22.1,00.0,31.6,24.4,09.2,0000.0,0003.40,0001.62,0001.30
2022-02-06 21:56:00,,0833.0,5.00,0.00,22.6,22.1,00.0,31.6,24.4,09.1,0000.0,0003.33,0001.57,0001.25
2022-02-06 21:57:00,,0833.0,5.00,0.00,22.6,22.1,00.0,31.6,24.4,08.9,0000.0,0003.25,0001.54,0001.23
2022-02-06 21:58:00,,0833.0,5.00,0.00,22.6,22.1,00.0,31.6,24.4,08.8,0000.0,0003.23,0001.50,0001.21
2022-02-06 21:59:00,,0833.0,5.00,0.00,22.7,22.1,00.0,31.6,24.4,08.8,0000.0,0003.24,0001.51,0001.21
